Time,TemperatureF,DewpointF,PressureIn,WindDirection,WindDirectionDegrees,WindSpeedMPH,WindSpeedGustMPH,Humidity,HourlyPrecipIn,Conditions,Clouds,dailyrainin,SoftwareType,DateUTC
2013-05-10 00:00:00,73.0,-99.9,29.86,SE,146,18.0,21.0,-999,-99.99,,,-99.99,,2013-05-10 05:00:00,
2013-05-10 00:32:00,73.0,-99.9,29.86,SE,146,18.0,21.0,-999,-99.99,,,-99.99,,2013-05-10 05:32:00,
2013-05-10 00:42:00,73.0,-99.9,29.86,SE,146,18.0,21.0,-999,-99.99,,,-99.99,,2013-05-10 05:42:00,
2013-05-10 00:52:00,73.0,-99.9,29.86,SE,146,18.0,21.0,-999,-99.99,,,-99.99,,2013-05-10 05:52:00,
2013-05-10 01:00:00,74.0,-99.9,29.92,SE,128,5.0,7.0,-999,-99.99,,,-99.99,,2013-05-10 06:00:00,
2013-05-10 01:32:00,74.0,-99.9,29.92,SE,128,5.0,7.0,-999,-99.99,,,-99.99,,2013-05-10 06:32:00,
2013-05-10 01:42:00,74.0,-99.9,29.92,SE,128,5.0,7.0,-999,-99.99,,,-99.99,,2013-05-10 06:42:00,
2013-05-10 01:52:00,74.0,-99.9,29.92,SE,128,5.0,7.0,-999,-99.99,,,-99.99,,2013-05-10 06:52:00,
2013-05-10 02:00:00,74.0,-99.9,29.90,SSE,148,8.0,9.0,-999,-99.99,,,-99.99,,2013-05-10 07:00:00,
2013-05-10 02:22:00,74.0,-99.9,29.90,SSE,148,8.0,9.0,-999,-99.99,,,-99.99,,2013-05-10 07:22:00,
2013-05-10 02:32:00,74.0,-99.9,29.90,SSE,148,8.0,9.0,-999,-99.99,,,-99.99,,2013-05-10 07:32:00,
2013-05-10 02:42:00,74.0,-99.9,29.90,SSE,148,8.0,9.0,-999,-99.99,,,-99.99,,2013-05-10 07:42:00,
2013-05-10 02:52:00,74.0,-99.9,29.90,SSE,148,8.0,9.0,-999,-99.99,,,-99.99,,2013-05-10 07:52:00,
2013-05-10 03:00:00,74.0,-99.9,29.90,ESE,106,2.0,4.0,-999,-99.99,,,-99.99,,2013-05-10 08:00:00,
2013-05-10 03:33:00,74.0,-99.9,29.90,ESE,106,2.0,4.0,-999,-99.99,,,-99.99,,2013-05-10 08:33:00,
2013-05-10 03:42:00,74.0,-99.9,29.90,ESE,106,2.0,4.0,-999,-99.99,,,-99.99,,2013-05-10 08:42:00,
2013-05-10 03:52:00,74.0,-99.9,29.90,ESE,106,2.0,4.0,-999,-99.99,,,-99.99,,2013-05-10 08:52:00,
2013-05-10 04:00:00,74.0,-99.9,29.85,SSE,151,11.0,12.0,-999,-99.99,,,-99.99,,2013-05-10 09:00:00,
2013-05-10 04:33:00,74.0,-99.9,29.85,SSE,151,11.0,12.0,-999,-99.99,,,-99.99,,2013-05-10 09:33:00,
2013-05-10 04:43:00,74.0,-99.9,29.85,SSE,151,11.0,12.0,-999,-99.99,,,-99.99,,2013-05-10 09:43:00,
2013-05-10 04:53:00,74.0,-99.9,29.85,SSE,151,11.0,12.0,-999,-99.99,,,-99.99,,2013-05-10 09:53:00,
2013-05-10 05:00:00,74.0,-99.9,29.80,SSE,166,20.0,24.0,-999,-99.99,,,-99.99,,2013-05-10 10:00:00,
2013-05-10 05:33:00,74.0,-99.9,29.80,SSE,166,20.0,24.0,-999,-99.99,,,-99.99,,2013-05-10 10:33:00,
2013-05-10 05:42:00,74.0,-99.9,29.80,SSE,166,20.0,24.0,-999,-99.99,,,-99.99,,2013-05-10 10:42:00,
2013-05-10 05:53:00,74.0,-99.9,29.80,SSE,166,20.0,24.0,-999,-99.99,,,-99.99,,2013-05-10 10:53:00,
2013-05-10 06:00:00,74.0,-99.9,29.81,South,169,14.0,17.0,-999,-99.99,,,-99.99,,2013-05-10 11:00:00,
2013-05-10 06:32:00,74.0,-99.9,29.81,South,169,14.0,17.0,-999,-99.99,,,-99.99,,2013-05-10 11:32:00,
2013-05-10 06:42:00,74.0,-99.9,29.81,South,169,14.0,17.0,-999,-99.99,,,-99.99,,2013-05-10 11:42:00,
2013-05-10 06:52:00,74.0,-99.9,29.81,South,169,14.0,17.0,-999,-99.99,,,-99.99,,2013-05-10 11:52:00,
2013-05-10 07:00:00,74.0,-99.9,29.84,SSE,148,11.0,13.0,-999,-99.99,,,-99.99,,2013-05-10 12:00:00,
2013-05-10 07:32:00,74.0,-99.9,29.84,SSE,148,11.0,13.0,-999,-99.99,,,-99.99,,2013-05-10 12:32:00,
2013-05-10 07:42:00,74.0,-99.9,29.84,SSE,148,11.0,13.0,-999,-99.99,,,-99.99,,2013-05-10 12:42:00,
2013-05-10 07:52:00,74.0,-99.9,29.84,SSE,148,11.0,13.0,-999,-99.99,,,-99.99,,2013-05-10 12:52:00,
2013-05-10 08:00:00,73.0,-99.9,29.88,SE,146,11.0,13.0,-999,-99.99,,,-99.99,,2013-05-10 13:00:00,
2013-05-10 08:32:00,73.0,-99.9,29.88,SE,146,11.0,13.0,-999,-99.99,,,-99.99,,2013-05-10 13:32:00,
2013-05-10 08:42:00,73.0,-99.9,29.88,SE,146,11.0,13.0,-999,-99.99,,,-99.99,,2013-05-10 13:42:00,
2013-05-10 08:52:00,73.0,-99.9,29.88,SE,146,11.0,13.0,-999,-99.99,,,-99.99,,2013-05-10 13:52:00,
2013-05-10 09:00:00,73.0,-99.9,29.90,ESE,122,13.0,14.0,-999,-99.99,,,-99.99,,2013-05-10 14:00:00,
2013-05-10 09:32:00,73.0,-99.9,29.90,ESE,122,13.0,14.0,-999,-99.99,,,-99.99,,2013-05-10 14:32:00,
2013-05-10 09:42:00,73.0,-99.9,29.90,ESE,122,13.0,14.0,-999,-99.99,,,-99.99,,2013-05-10 14:42:00,
2013-05-10 09:52:00,73.0,-99.9,29.90,ESE,122,13.0,14.0,-999,-99.99,,,-99.99,,2013-05-10 14:52:00,
2013-05-10 10:00:00,73.0,-99.9,29.91,SE,133,12.0,14.0,-999,-99.99,,,-99.99,,2013-05-10 15:00:00,
2013-05-10 10:22:00,73.0,-99.9,29.91,SE,133,12.0,14.0,-999,-99.99,,,-99.99,,2013-05-10 15:22:00,
2013-05-10 10:32:00,73.0,-99.9,29.91,SE,133,12.0,14.0,-999,-99.99,,,-99.99,,2013-05-10 15:32:00,
2013-05-10 10:43:00,73.0,-99.9,29.91,SE,133,12.0,14.0,-999,-99.99,,,-99.99,,2013-05-10 15:43:00,
2013-05-10 10:53:00,73.0,-99.9,29.91,SE,133,12.0,14.0,-999,-99.99,,,-99.99,,2013-05-10 15:53:00,
2013-05-10 11:00:00,73.0,-99.9,29.93,SSE,149,6.0,8.0,-999,-99.99,,,-99.99,,2013-05-10 16:00:00,
2013-05-10 11:33:00,73.0,-99.9,29.93,SSE,149,6.0,8.0,-999,-99.99,,,-99.99,,2013-05-10 16:33:00,
2013-05-10 11:43:00,73.0,-99.9,29.93,SSE,149,6.0,8.0,-999,-99.99,,,-99.99,,2013-05-10 16:43:00,
2013-05-10 11:53:00,73.0,-99.9,29.93,SSE,149,6.0,8.0,-999,-99.99,,,-99.99,,2013-05-10 16:53:00,
2013-05-10 12:00:00,-999.0,-99.9,29.95,NE,47,17.0,21.0,-999,-99.99,,,-99.99,,2013-05-10 17:00:00,
2013-05-10 12:32:00,69.0,-99.9,29.95,NE,47,17.0,21.0,-999,-99.99,,,-99.99,,2013-05-10 17:32:00,
2013-05-10 12:42:00,69.0,-99.9,29.95,NE,47,17.0,21.0,-999,-99.99,,,-99.99,,2013-05-10 17:42:00,
2013-05-10 12:52:00,69.0,-99.9,29.95,NE,47,17.0,21.0,-999,-99.99,,,-99.99,,2013-05-10 17:52:00,
2013-05-10 13:00:00,70.0,-99.9,29.93,ENE,72,20.0,23.0,-999,-99.99,,,-99.99,,2013-05-10 18:00:00,
2013-05-10 13:35:00,70.0,-99.9,29.93,ENE,72,20.0,23.0,-999,-99.99,,,-99.99,,2013-05-10 18:35:00,
2013-05-10 13:43:00,70.0,-99.9,29.93,ENE,72,20.0,23.0,-999,-99.99,,,-99.99,,2013-05-10 18:43:00,
2013-05-10 13:54:00,70.0,-99.9,29.93,ENE,72,20.0,23.0,-999,-99.99,,,-99.99,,2013-05-10 18:54:00,
2013-05-10 14:00:00,72.0,-99.9,29.91,East,88,21.0,25.0,-999,-99.99,,,-99.99,,2013-05-10 19:00:00,
2013-05-10 14:32:00,72.0,-99.9,29.91,East,88,21.0,25.0,-999,-99.99,,,-99.99,,2013-05-10 19:32:00,
2013-05-10 14:42:00,72.0,-99.9,29.91,East,88,21.0,25.0,-999,-99.99,,,-99.99,,2013-05-10 19:42:00,
2013-05-10 14:52:00,72.0,-99.9,29.91,East,88,21.0,25.0,-999,-99.99,,,-99.99,,2013-05-10 19:52:00,
2013-05-10 15:00:00,73.0,-99.9,29.89,East,92,16.0,20.0,-999,-99.99,,,-99.99,,2013-05-10 20:00:00,
2013-05-10 15:32:00,73.0,-99.9,29.89,East,92,16.0,20.0,-999,-99.99,,,-99.99,,2013-05-10 20:32:00,
2013-05-10 15:42:00,73.0,-99.9,29.89,East,92,16.0,20.0,-999,-99.99,,,-99.99,,2013-05-10 20:42:00,
2013-05-10 15:52:00,73.0,-99.9,29.89,East,92,16.0,20.0,-999,-99.99,,,-99.99,,2013-05-10 20:52:00,
2013-05-10 16:00:00,74.0,-99.9,29.86,ESE,107,17.0,20.0,-999,-99.99,,,-99.99,,2013-05-10 21:00:00,
2013-05-10 16:32:00,74.0,-99.9,29.86,ESE,107,17.0,20.0,-999,-99.99,,,-99.99,,2013-05-10 21:32:00,
2013-05-10 16:43:00,74.0,-99.9,29.86,ESE,107,17.0,20.0,-999,-99.99,,,-99.99,,2013-05-10 21:43:00,
2013-05-10 16:53:00,74.0,-99.9,29.86,ESE,107,17.0,20.0,-999,-99.99,,,-99.99,,2013-05-10 21:53:00,
2013-05-10 17:00:00,74.0,-99.9,29.84,ESE,115,20.0,23.0,-999,-99.99,,,-99.99,,2013-05-10 22:00:00,
2013-05-10 17:32:00,74.0,-99.9,29.84,ESE,115,20.0,23.0,-999,-99.99,,,-99.99,,2013-05-10 22:32:00,
2013-05-10 17:42:00,74.0,-99.9,29.84,ESE,115,20.0,23.0,-999,-99.99,,,-99.99,,2013-05-10 22:42:00,
2013-05-10 17:53:00,74.0,-99.9,29.84,ESE,115,20.0,23.0,-999,-99.99,,,-99.99,,2013-05-10 22:53:00,
2013-05-10 18:00:00,74.0,-99.9,29.83,SE,126,18.0,20.0,-999,-99.99,,,-99.99,,2013-05-10 23:00:00,
2013-05-10 18:33:00,74.0,-99.9,29.83,SE,126,18.0,20.0,-999,-99.99,,,-99.99,,2013-05-10 23:33:00,
2013-05-10 18:42:00,74.0,-99.9,29.83,SE,126,18.0,20.0,-999,-99.99,,,-99.99,,2013-05-10 23:42:00,
2013-05-10 18:52:00,74.0,-99.9,29.83,SE,126,18.0,20.0,-999,-99.99,,,-99.99,,2013-05-10 23:52:00,
2013-05-10 19:00:00,74.0,-99.9,29.84,ESE,110,15.0,17.0,-999,-99.99,,,-99.99,,2013-05-11 00:00:00,
2013-05-10 19:22:00,74.0,-99.9,29.84,ESE,110,15.0,17.0,-999,-99.99,,,-99.99,,2013-05-11 00:22:00,
2013-05-10 19:32:00,74.0,-99.9,29.84,ESE,110,15.0,17.0,-999,-99.99,,,-99.99,,2013-05-11 00:32:00,
2013-05-10 19:42:00,74.0,-99.9,29.84,ESE,110,15.0,17.0,-999,-99.99,,,-99.99,,2013-05-11 00:42:00,
2013-05-10 19:52:00,74.0,-99.9,29.84,ESE,110,15.0,17.0,-999,-99.99,,,-99.99,,2013-05-11 00:52:00,
2013-05-10 20:00:00,72.0,-99.9,29.86,ESE,108,15.0,18.0,-999,-99.99,,,-99.99,,2013-05-11 01:00:00,
2013-05-10 20:32:00,72.0,-99.9,29.86,ESE,108,15.0,18.0,-999,-99.99,,,-99.99,,2013-05-11 01:32:00,
2013-05-10 20:42:00,72.0,-99.9,29.86,ESE,108,15.0,18.0,-999,-99.99,,,-99.99,,2013-05-11 01:42:00,
2013-05-10 20:52:00,72.0,-99.9,29.86,ESE,108,15.0,18.0,-999,-99.99,,,-99.99,,2013-05-11 01:52:00,
2013-05-10 21:00:00,72.0,-99.9,29.89,East,101,9.0,10.0,-999,-99.99,,,-99.99,,2013-05-11 02:00:00,
2013-05-10 21:32:00,72.0,-99.9,29.89,East,101,9.0,10.0,-999,-99.99,,,-99.99,,2013-05-11 02:32:00,
2013-05-10 21:42:00,72.0,-99.9,29.89,East,101,9.0,10.0,-999,-99.99,,,-99.99,,2013-05-11 02:42:00,
2013-05-10 21:52:00,72.0,-99.9,29.89,East,101,9.0,10.0,-999,-99.99,,,-99.99,,2013-05-11 02:52:00,
2013-05-10 22:00:00,73.0,-99.9,29.93,ENE,59,8.0,9.0,-999,-99.99,,,-99.99,,2013-05-11 03:00:00,
2013-05-10 22:33:00,73.0,-99.9,29.93,ENE,59,8.0,9.0,-999,-99.99,,,-99.99,,2013-05-11 03:33:00,
2013-05-10 22:43:00,73.0,-99.9,29.93,ENE,59,8.0,9.0,-999,-99.99,,,-99.99,,2013-05-11 03:43:00,
2013-05-10 22:53:00,73.0,-99.9,29.93,ENE,59,8.0,9.0,-999,-99.99,,,-99.99,,2013-05-11 03:53:00,
2013-05-10 23:00:00,73.0,-99.9,29.96,NNE,16,18.0,20.0,-999,-99.99,,,-99.99,,2013-05-11 04:00:00,
2013-05-10 23:33:00,73.0,-99.9,29.96,NNE,16,18.0,20.0,-999,-99.99,,,-99.99,,2013-05-11 04:33:00,
2013-05-10 23:43:00,73.0,-99.9,29.96,NNE,16,18.0,20.0,-999,-99.99,,,-99.99,,2013-05-11 04:43:00,
2013-05-10 23:52:00,73.0,-99.9,29.96,NNE,16,18.0,20.0,-999,-99.99,,,-99.99,,2013-05-11 04:52:00,